• In Czech Republic
  • List of Countries
  • For 7 days
  • Water Temperature
  • Satellite Maps
  • Weather Map
  • Weather Widgets
  • user-avatar
    Login

    Hourly Weather Stepanakert

    Today, 22 July, Saturday

    Time Temperature Precipitation Wind Pressure Humidity
    00:00 +24°C° 0 mm 2 mps 692 mmHg 38%
    01:00 +24°C° 0 mm 2 mps 692 mmHg 38%
    02:00 +23°C° 0 mm 2 mps 692 mmHg 37%
    03:00 +23°C° 0 mm 2 mps 692 mmHg 37%
    04:00 +23°C° 0 mm 2 mps 692 mmHg 37%
    05:00 +24°C° 0 mm 2 mps 692 mmHg 37%
    06:00 +24°C° 0 mm 2 mps 693 mmHg 37%
    07:00 +26°C° 0 mm 2 mps 693 mmHg 34%
    08:00 +28°C° 0 mm 2 mps 693 mmHg 31%
    09:00 +31°C° 0 mm 2 mps 694 mmHg 28%
    10:00 +33°C° 0 mm 3 mps 693 mmHg 27%
    11:00 +34°C° 0 mm 3 mps 693 mmHg 25%
    12:00 +35°C° 0 mm 3 mps 693 mmHg 24%
    13:00 +36°C° 0 mm 4 mps 693 mmHg 24%
    14:00 +36°C° 0 mm 4 mps 692 mmHg 24%
    15:00 +36°C° 0 mm 4 mps 692 mmHg 24%
    16:00 +36°C° 0 mm 4 mps 692 mmHg 26%
    17:00 +35°C° 0 mm 3 mps 692 mmHg 29%
    18:00 +34°C° 0 mm 3 mps 691 mmHg 31%
    19:00 +31°C° 0 mm 3 mps 691 mmHg 35%
    20:00 +28°C° 0 mm 2 mps 691 mmHg 39%
    21:00 +26°C° 0 mm 2 mps 691 mmHg 43%
    22:00 +26°C° 0 mm 2 mps 691 mmHg 43%
    23:00 +25°C° 0 mm 2 mps 691 mmHg 44%

    Tomorrow, 23 July, Sunday

    Time Temperature Precipitation Wind Pressure Humidity
    00:00 +24°C° 0 mm 2 mps 691 mmHg 45%
    01:00 +24°C° 0 mm 2 mps 690 mmHg 44%
    02:00 +24°C° 0 mm 2 mps 690 mmHg 44%
    03:00 +24°C° 0 mm 2 mps 690 mmHg 44%
    04:00 +24°C° 0 mm 2 mps 690 mmHg 43%
    05:00 +24°C° 0 mm 2 mps 690 mmHg 43%
    06:00 +25°C° 0 mm 2 mps 691 mmHg 43%
    07:00 +27°C° 0 mm 2 mps 691 mmHg 37%
    08:00 +29°C° 0 mm 2 mps 691 mmHg 32%
    09:00 +31°C° 0 mm 2 mps 691 mmHg 26%
    10:00 +33°C° 0 mm 3 mps 691 mmHg 25%
    11:00 +34°C° 0 mm 3 mps 690 mmHg 23%
    12:00 +36°C° 0 mm 3 mps 690 mmHg 21%
    13:00 +36°C° 0 mm 3 mps 690 mmHg 21%
    14:00 +36°C° 0 mm 3 mps 689 mmHg 21%
    15:00 +37°C° 0 mm 3 mps 689 mmHg 20%
    16:00 +36°C° 0 mm 3 mps 688 mmHg 22%
    17:00 +35°C° 0 mm 3 mps 688 mmHg 24%
    18:00 +35°C° 0 mm 2 mps 688 mmHg 26%
    19:00 +31°C° 0 mm 2 mps 688 mmHg 29%
    20:00 +29°C° 0 mm 2 mps 688 mmHg 32%
    21:00 +27°C° 0 mm 2 mps 689 mmHg 34%
    22:00 +26°C° 0 mm 2 mps 689 mmHg 36%
    23:00 +25°C° 0 mm 2 mps 689 mmHg 37%

    Day after tomorrow, 24 July, Monday

    Time Temperature Precipitation Wind Pressure Humidity
    00:00 +25°C° 0 mm 2 mps 689 mmHg 39%
    01:00 +24°C° 0 mm 2 mps 689 mmHg 39%
    02:00 +24°C° 0 mm 2 mps 689 mmHg 40%
    03:00 +23°C° 0 mm 2 mps 689 mmHg 40%
    04:00 +24°C° 0 mm 2 mps 689 mmHg 40%
    05:00 +24°C° 0 mm 2 mps 690 mmHg 40%
    06:00 +24°C° 0 mm 2 mps 690 mmHg 39%
    07:00 +26°C° 0 mm 2 mps 690 mmHg 38%
    08:00 +28°C° 0 mm 3 mps 690 mmHg 37%
    09:00 +30°C° 0 mm 4 mps 691 mmHg 35%
    10:00 +32°C° 0 mm 4 mps 691 mmHg 34%
    11:00 +33°C° 0 mm 4 mps 690 mmHg 33%
    12:00 +34°C° 0 mm 5 mps 690 mmHg 32%
    13:00 +35°C° 0 mm 5 mps 690 mmHg 31%
    14:00 +35°C° 0 mm 5 mps 689 mmHg 31%
    15:00 +35°C° 0 mm 5 mps 689 mmHg 30%
    16:00 +34°C° 0 mm 5 mps 689 mmHg 33%
    17:00 +33°C° 0 mm 5 mps 689 mmHg 36%
    18:00 +32°C° 0 mm 5 mps 688 mmHg 39%
    19:00 +29°C° 0 mm 4 mps 689 mmHg 45%
    20:00 +27°C° 0 mm 3 mps 689 mmHg 50%
    21:00 +25°C° 0 mm 2 mps 689 mmHg 56%
    22:00 +24°C° 0 mm 2 mps 689 mmHg 57%
    23:00 +24°C° 0 mm 2 mps 689 mmHg 58%

    25 July, Tuesday

    Time Temperature Precipitation Wind Pressure Humidity
    00:00 +23°C° 0 mm 2 mps 689 mmHg 58%
    01:00 +23°C° 0 mm 2 mps 688 mmHg 57%
    02:00 +23°C° 0 mm 2 mps 688 mmHg 56%
    03:00 +21°C° 0 mm 2 mps 688 mmHg 55%
    04:00 +23°C° 0 mm 1 mps 688 mmHg 53%
    05:00 +23°C° 0 mm 1 mps 689 mmHg 51%
    06:00 +24°C° 0 mm 1 mps 689 mmHg 50%
    07:00 +26°C° 0 mm 2 mps 689 mmHg 45%
    08:00 +28°C° 0 mm 2 mps 689 mmHg 40%
    09:00 +30°C° 0 mm 2 mps 689 mmHg 36%
    10:00 +31°C° 0 mm 2 mps 689 mmHg 33%
    11:00 +33°C° 0 mm 3 mps 689 mmHg 31%
    12:00 +35°C° 0 mm 3 mps 688 mmHg 28%
    13:00 +35°C° 0 mm 3 mps 688 mmHg 28%
    14:00 +36°C° 0 mm 3 mps 688 mmHg 27%
    15:00 +36°C° 0 mm 3 mps 687 mmHg 27%
    16:00 +35°C° 0 mm 3 mps 687 mmHg 29%
    17:00 +35°C° 0 mm 3 mps 687 mmHg 31%
    18:00 +34°C° 0 mm 3 mps 687 mmHg 33%
    19:00 +31°C° 0 mm 2 mps 687 mmHg 38%
    20:00 +29°C° 0 mm 2 mps 688 mmHg 43%
    21:00 +26°C° 0 mm 2 mps 688 mmHg 49%
    22:00 +26°C° 0 mm 2 mps 688 mmHg 50%
    23:00 +25°C° 0 mm 2 mps 688 mmHg 51%

    26 July, Wednesday

    Time Temperature Precipitation Wind Pressure Humidity
    00:00 +25°C° 0 mm 2 mps 688 mmHg 52%
    01:00 +25°C° 0 mm 2 mps 688 mmHg 52%
    02:00 +24°C° 0 mm 2 mps 688 mmHg 52%
    03:00 +24°C° 0 mm 2 mps 688 mmHg 53%
    04:00 +24°C° 0 mm 2 mps 688 mmHg 52%
    05:00 +25°C° 0 mm 2 mps 688 mmHg 51%
    06:00 +25°C° 0 mm 2 mps 689 mmHg 50%
    07:00 +27°C° 0 mm 2 mps 689 mmHg 44%
    08:00 +29°C° 0 mm 2 mps 689 mmHg 38%
    09:00 +31°C° 0 mm 2 mps 690 mmHg 33%
    10:00 +34°C° 0 mm 2 mps 690 mmHg 31%
    11:00 +35°C° 0 mm 3 mps 689 mmHg 28%
    12:00 +36°C° 0 mm 3 mps 689 mmHg 26%
    13:00 +36°C° 0 mm 3 mps 689 mmHg 25%
    14:00 +37°C° 0 mm 3 mps 689 mmHg 25%
    15:00 +37°C° 0 mm 3 mps 689 mmHg 25%
    16:00 +36°C° 0.1 mm 3 mps 689 mmHg 27%
    17:00 +36°C° 0.1 mm 3 mps 689 mmHg 29%
    18:00 +35°C° 0.1 mm 2 mps 689 mmHg 30%
    19:00 +32°C° 0 mm 2 mps 689 mmHg 35%
    20:00 +30°C° 0 mm 2 mps 690 mmHg 40%
    21:00 +27°C° 0 mm 2 mps 690 mmHg 44%
    22:00 +27°C° 0 mm 2 mps 690 mmHg 45%
    23:00 +26°C° 0 mm 2 mps 690 mmHg 45%

    27 July, Thursday

    Time Temperature Precipitation Wind Pressure Humidity
    00:00 +26°C° 0 mm 2 mps 690 mmHg 46%
    01:00 +25°C° 0 mm 2 mps 690 mmHg 46%
    02:00 +25°C° 0 mm 2 mps 691 mmHg 47%
    03:00 +25°C° 0 mm 2 mps 691 mmHg 47%
    04:00 +25°C° 0 mm 1 mps 691 mmHg 47%
    05:00 +25°C° 0 mm 1 mps 691 mmHg 47%
    06:00 +26°C° 0 mm 1 mps 692 mmHg 46%
    07:00 +28°C° 0 mm 2 mps 692 mmHg 41%
    08:00 +30°C° 0 mm 2 mps 692 mmHg 36%
    09:00 +32°C° 0 mm 2 mps 693 mmHg 31%
    10:00 +34°C° 0 mm 3 mps 692 mmHg 29%
    11:00 +35°C° 0 mm 3 mps 692 mmHg 27%
    12:00 +36°C° 0 mm 3 mps 692 mmHg 24%
    13:00 +37°C° 0 mm 4 mps 692 mmHg 24%
    14:00 +37°C° 0 mm 4 mps 692 mmHg 23%
    15:00 +38°C° 0 mm 4 mps 691 mmHg 23%
    16:00 +37°C° 0 mm 4 mps 691 mmHg 25%
    17:00 +36°C° 0 mm 4 mps 691 mmHg 27%
    18:00 +35°C° 0 mm 4 mps 691 mmHg 29%
    19:00 +33°C° 0 mm 3 mps 691 mmHg 33%
    20:00 +29°C° 0 mm 3 mps 692 mmHg 37%
    21:00 +27°C° 0 mm 2 mps 692 mmHg 41%
    22:00 +26°C° 0 mm 2 mps 692 mmHg 42%
    23:00 +26°C° 0 mm 2 mps 692 mmHg 44%
    Show more